Location: ??????????
(42.1626°N, 44.1160°E)
Time: 13:23:38
(UTC+00:00)

CZ-2C R/B - Pass Details

Date: 03 March 2021
Orbit: 783 x 871 km, 98.2° (Epoch: 20 April)

Event Time Altitude Azimuth Distance (km) Brightness Sun altitude
Rises 16:19:37 0° 12° (NNE) 3,427 5.8 -16.3°
Reaches altitude 10° 16:22:01 10° 11° (N) 2,475 5.1 -16.7°
Maximum altitude 16:27:31 81° 285° (WNW) 845 2.7 -17.7°
Drops below altitude 10° 16:32:51 10° 199° (SSW) 2,400 5.2 -18.7°
Sets 16:35:09 0° 198° (SSW) 3,315 5.9 -19.1°
